Meteo Giornale » Osservazioni meteo Gran Bretagna » Wattisham

ore: 12:50 - Osservazioni Meteo Wattisham
Lat. 52° 7' N Lon. 0° 58' E Alt. 87 metri s.l.m.

nuvoloso Europe/London

17 °C

Nuvoloso

Temp. 24 Ore

9 °C

17 °C

Sud

24 Km/h

Dew point 10 °C

Umidità 63 %

Visibilità  10 Km

Il sole sorge alle ore 06:50

Il sole tramonta alle ore 18:42

Data e Ora Cielo e Fenomeni T °C DP °C Um. % Pres. hPa Vis. km Vento km/h
Oggi h: 12:50 nuvoloso Nuvoloso 17 10 63 1016 10 S 24
Oggi h: 11:50 molto_nuvoloso Molto Nuvoloso 16 10 67 1017 10 S/SO 24
Oggi h: 10:50 molto_nuvoloso Molto Nuvoloso 15 11 76 1018 10 S/SO 18.5
Oggi h: 09:50 sereno Sereno 14 11 82 1018 10 S 14.8
Oggi h: 08:50 sereno Sereno 12 10 87 1018 10 S 14.8
Oggi h: 07:50 sereno Sereno 11 9 87 1018 10 S 14.8
Oggi h: 06:50 molto_nuvoloso Molto Nuvoloso 10 9 93 1018 10 S 13
Oggi h: 05:50 nuvoloso Nuvoloso 9 8 93 1018 10 S 9.3
Oggi h: 03:50 sereno Sereno 9 8 93 1018 10 S/SO 9.3
Oggi h: 02:50 sereno Sereno 9 7 87 1018 10 SO 7.4
Oggi h: 01:50 sereno Sereno 9 8 93 1018 10 S/SO 9.3
Oggi h: 00:50 sereno Sereno 10 8 87 1018 10 S/SO 13
Ieri h: 23:50 sereno Sereno 10 8 87 1018 10 S/SO 13
Ieri h: 22:50 sereno Sereno 9 6 81 1017 10 SO 7.4
Ieri h: 21:50 sereno Sereno 11 7 76 1017 10 SO 11.1
Ieri h: 20:50 sereno Sereno 11 7 76 1016 10 SO 11.1
Ieri h: 19:50 poco_nuvoloso Poco Nuvoloso 13 7 66 1015 10 O/SO 13
Ieri h: 18:50 poco_nuvoloso Poco Nuvoloso 14 7 62 1014 10 SO 13
Ieri h: 17:50 poco_nuvoloso Poco Nuvoloso 15 8 62 1013 10 O/SO 20.3
Ieri h: 16:50 poco_nuvoloso Poco Nuvoloso 16 8 58 1012 10 O 31.5
Ieri h: 15:50 nuvoloso Nuvoloso 16 7 55 1011 10 O 31.5
Ieri h: 14:50 poco_nuvoloso Poco Nuvoloso 16 7 55 1010 10 O 33.3
Ieri h: 13:50 poco_nuvoloso Poco Nuvoloso 15 8 62 1009 10 O 37